Starlink 31989

operational
NORAD ID: 59959 Int'l Des: 2024-107 Owner: SPXS Country: US Constellation: starlink
LEOCIRCULAR

About Starlink 31989

Description loading...

Live Position

Loading 3D Globe...

Upcoming Passes

Altitude History

Altitude vs Time

uPlot chart will show altitude changes over time

Two-Line Element Set

1 59959U 24107Q 26093.87171975 -.00000673 00000-0 -10614-4 0 9990
2 59959 53.1606 308.4443 0001184 77.7060 282.4074 15.30191084103651
Epoch: Apr 3, 2026 • Age: 7 hours

Current Status

Altitude 491.9 km
Velocity 7.62 km/s
Sub-Earth Point -46.48°S, 77.63°W
Launch Date Jun 5, 2024
Age 1.8 years
Type internet

Technical Details

Classification Payload
Mass 730.00 kg
Dry Mass 700.00 kg
Total Mass 730.00 kg
Length 0.30 m
Diameter 4.10 m
Span 29.00 m
Shape Box + pan
Manufacturer SPXS
Bus Type Starlink V2M
Phase Status In Orbit
Owner/State SPXS/US

Large Constellations

Loading constellations...